| time (UTC) | temp F | wind direction | speed MPH | gust MPH | rain 1hr in | rain 24hr in | rain mn in | humidity % | barometer mb |
| 20260902031204 | 80 | 57 | 0.0 | 0.0 | 0.00 | 0.04 | 0.04 | 99 | 1014.9 |
| 20260902030704 | 80 | 58 | 0.0 | 0.0 | 0.00 | 0.04 | 0.04 | 99 | 1014.9 |
| 20260902030203 | 80 | 57 | 0.0 | 0.0 | 0.00 | 0.04 | 0.04 | 99 | 1014.9 |
| 20260902024704 | 80 | 58 | 0.0 | 0.0 | 0.00 | 0.04 | 0.04 | 99 | 1014.9 |
| 20260902024204 | 80 | 58 | 0.0 | 0.0 | 0.00 | 0.04 | 0.04 | 99 | 1014.9 |
| 20260902023704 | 80 | 57 | 0.0 | 0.0 | 0.00 | 0.04 | 0.04 | 99 | 1014.9 |
| 20260902023204 | 80 | 57 | 0.0 | 0.0 | 0.00 | 0.04 | 0.04 | 99 | 1014.9 |
| 20260902021204 | 80 | 11 | 0.0 | 0.0 | 0.00 | 0.04 | 0.04 | 99 | 1014.9 |
| 20260902020704 | 80 | 353 | 0.0 | 0.0 | 0.00 | 0.04 | 0.04 | 99 | 1014.9 |
| 20260902020204 | 80 | 353 | 0.0 | 3.0 | 0.00 | 0.04 | 0.04 | 99 | 1014.9 |
| 20260902014704 | 81 | 353 | 0.0 | 0.0 | 0.00 | 0.04 | 0.04 | 99 | 1014.9 |
| 20260902014204 | 81 | 353 | 0.0 | 0.0 | 0.00 | 0.04 | 0.04 | 100 | 1014.9 |
| 20260902013704 | 81 | 353 | 0.0 | 0.0 | 0.00 | 0.04 | 0.04 | 100 | 1014.9 |
| 20260902013203 | 81 | 353 | 0.0 | 0.0 | 0.00 | 0.04 | 0.04 | 100 | 1014.9 |
| 20260902011704 | 82 | 335 | 0.0 | 0.0 | 0.00 | 0.04 | 0.04 | 99 | 1014.9 |
| 20260902011204 | 82 | 335 | 0.0 | 0.0 | 0.00 | 0.04 | 0.04 | 98 | 1014.9 |
| 20260902010704 | 82 | 335 | 0.0 | 0.0 | 0.00 | 0.04 | 0.04 | 98 | 1014.9 |
| 20260902010204 | 82 | 335 | 0.0 | 2.0 | 0.00 | 0.04 | 0.04 | 98 | 1014.9 |
| 20260902003704 | 82 | 69 | 0.0 | 0.0 | 0.00 | 0.04 | 0.04 | 97 | 1014.9 |
| 20260902003205 | 82 | 69 | 0.0 | 0.0 | 0.00 | 0.04 | 0.04 | 97 | 1014.9 |
| 20260902001704 | 82 | 69 | 0.0 | 0.0 | 0.00 | 0.04 | 0.04 | 95 | 1014.9 |
| 20260902001203 | 82 | 69 | 0.0 | 0.0 | 0.00 | 0.04 | 0.04 | 95 | 1014.9 |
| 20260902000204 | 82 | 69 | 0.0 | 0.0 | 0.00 | 0.04 | 0.04 | 95 | 1014.9 |
| 20260901234704 | 82 | 69 | 0.0 | 0.0 | 0.00 | 0.04 | 0.04 | 92 | 1013.9 |
| 20260901234204 | 82 | 69 | 0.0 | 0.0 | 0.00 | 0.04 | 0.04 | 92 | 1013.9 |
| 20260901233703 | 82 | 69 | 0.0 | 0.0 | 0.00 | 0.04 | 0.04 | 92 | 1013.9 |
| 20260901233203 | 82 | 69 | 0.0 | 3.0 | 0.00 | 0.04 | 0.04 | 92 | 1013.9 |
| 20260901231704 | 83 | 47 | 0.0 | 3.0 | 0.00 | 0.04 | 0.04 | 96 | 1013.9 |
| 20260901231203 | 83 | 52 | 0.0 | 3.0 | 0.00 | 0.04 | 0.04 | 96 | 1013.9 |
| 20260901230204 | 83 | 74 | 4.0 | 6.0 | 0.00 | 0.04 | 0.04 | 96 | 1013.9 |
| 20260901224703 | 83 | 59 | 5.0 | 6.0 | 0.00 | 0.04 | 0.04 | 94 | 1013.9 |
| 20260901223704 | 83 | 18 | 2.0 | 6.0 | 0.00 | 0.04 | 0.04 | 94 | 1013.9 |
| 20260901223204 | 83 | 73 | 5.0 | 6.0 | 0.00 | 0.04 | 0.04 | 93 | 1013.9 |
| 20260901221704 | 83 | 89 | 1.0 | 5.0 | 0.00 | 0.04 | 0.04 | 92 | 1013.9 |
| 20260901221203 | 83 | 60 | 3.0 | 5.0 | 0.00 | 0.04 | 0.04 | 92 | 1013.9 |
| 20260901220704 | 83 | 49 | 1.0 | 3.0 | 0.00 | 0.04 | 0.04 | 91 | 1013.9 |
| 20260901220204 | 83 | 50 | 3.0 | 6.0 | 0.00 | 0.04 | 0.04 | 92 | 1013.9 |
| 20260901214704 | 83 | 67 | 3.0 | 6.0 | 0.00 | 0.04 | 0.04 | 94 | 1013.9 |
| 20260901214204 | 84 | 78 | 4.0 | 6.0 | 0.00 | 0.04 | 0.04 | 94 | 1013.9 |
| 20260901213704 | 84 | 91 | 3.0 | 6.0 | 0.00 | 0.04 | 0.04 | 95 | 1013.9 |
| 20260901213203 | 84 | 70 | 2.0 | 6.0 | 0.00 | 0.04 | 0.04 | 94 | 1013.9 |
| 20260901211704 | 84 | 62 | 3.0 | 5.0 | 0.00 | 0.04 | 0.04 | 93 | 1013.9 |
| 20260901211204 | 84 | 62 | 3.0 | 3.0 | 0.00 | 0.04 | 0.04 | 93 | 1013.9 |
| 20260901210703 | 84 | 70 | 0.0 | 3.0 | 0.00 | 0.04 | 0.04 | 93 | 1013.9 |
| 20260901210203 | 84 | 62 | 2.0 | 3.0 | 0.00 | 0.04 | 0.04 | 93 | 1013.9 |
| 20260901204704 | 83 | 59 | 3.0 | 5.0 | 0.00 | 0.04 | 0.04 | 95 | 1013.9 |
| 20260901204204 | 83 | 62 | 3.0 | 6.0 | 0.00 | 0.04 | 0.04 | 95 | 1013.9 |
| 20260901203203 | 83 | 81 | 3.0 | 8.0 | 0.04 | 0.04 | 0.04 | 96 | 1013.9 |
| 20260901201704 | 83 | 63 | 5.0 | 7.0 | 0.04 | 0.04 | 0.04 | 98 | 1013.9 |
| 20260901201204 | 83 | 98 | 5.0 | 7.0 | 0.04 | 0.04 | 0.04 | 99 | 1013.9 |
| 20260901200703 | 83 | 70 | 5.0 | 6.0 | 0.04 | 0.04 | 0.04 | 99 | 1013.9 |
| 20260901200203 | 83 | 86 | 3.0 | 6.0 | 0.04 | 0.04 | 0.04 | 100 | 1013.9 |
| 20260901194703 | 83 | 53 | 2.0 | 6.0 | 0.04 | 0.04 | 0.04 | 98 | 1013.9 |
| 20260901194204 | 83 | 8 | 2.0 | 6.0 | 0.04 | 0.04 | 0.04 | 98 | 1013.9 |
| 20260901193204 | 86 | 55 | 7.0 | 9.0 | 0.00 | 0.00 | 0.00 | 89 | 1013.9 |
| 20260901191704 | 87 | 88 | 5.0 | 8.0 | 0.00 | 0.00 | 0.00 | 85 | 1013.9 |
| 20260901191204 | 87 | 71 | 4.0 | 6.0 | 0.00 | 0.00 | 0.00 | 86 | 1013.9 |
| 20260901190704 | 87 | 96 | 4.0 | 8.0 | 0.00 | 0.00 | 0.00 | 87 | 1013.9 |
| 20260901184703 | 87 | 93 | 6.0 | 8.0 | 0.00 | 0.16 | 0.00 | 87 | 1014.9 |
| 20260901184204 | 87 | 93 | 6.0 | 10.0 | 0.00 | 0.16 | 0.00 | 86 | 1014.9 |
| 20260901183704 | 87 | 75 | 7.0 | 9.0 | 0.00 | 0.16 | 0.00 | 83 | 1014.9 |
| 20260901181705 | 87 | 65 | 8.0 | 10.0 | 0.00 | 0.16 | 0.00 | 82 | 1014.9 |
| 20260901181204 | 88 | 70 | 6.0 | 9.0 | 0.00 | 0.16 | 0.00 | 82 | 1014.9 |
| 20260901180704 | 88 | 94 | 6.0 | 8.0 | 0.00 | 0.16 | 0.00 | 84 | 1014.9 |
| 20260901174704 | 88 | 54 | 7.0 | 10.0 | 0.00 | 0.16 | 0.00 | 83 | 1014.9 |
| 20260901174204 | 88 | 53 | 6.0 | 12.0 | 0.00 | 0.16 | 0.00 | 82 | 1014.9 |
| 20260901173703 | 88 | 49 | 7.0 | 10.0 | 0.00 | 0.16 | 0.00 | 83 | 1014.9 |
| 20260901173205 | 88 | 87 | 9.0 | 13.0 | 0.00 | 0.16 | 0.00 | 81 | 1014.9 |
| 20260901171704 | 88 | 75 | 8.0 | 12.0 | 0.00 | 0.16 | 0.00 | 82 | 1015.9 |
| 20260901170704 | 88 | 73 | 8.0 | 12.0 | 0.00 | 0.16 | 0.00 | 83 | 1015.9 |
| 20260901170204 | 88 | 58 | 5.0 | 9.0 | 0.00 | 0.16 | 0.00 | 84 | 1015.9 |
| 20260901164704 | 87 | 67 | 7.0 | 9.0 | 0.00 | 0.16 | 0.00 | 83 | 1015.9 |
| 20260901164204 | 87 | 47 | 4.0 | 8.0 | 0.00 | 0.16 | 0.00 | 83 | 1015.9 |
| 20260901163704 | 87 | 87 | 7.0 | 9.0 | 0.00 | 0.16 | 0.00 | 81 | 1015.9 |
| 20260901161703 | 86 | 64 | 5.0 | 8.0 | 0.00 | 0.16 | 0.00 | 85 | 1015.9 |
| 20260901161204 | 86 | 36 | 6.0 | 9.0 | 0.00 | 0.16 | 0.00 | 81 | 1015.9 |
| 20260901160704 | 86 | 71 | 7.0 | 9.0 | 0.00 | 0.16 | 0.00 | 85 | 1015.9 |
| 20260901160204 | 86 | 70 | 7.0 | 10.0 | 0.00 | 0.16 | 0.00 | 82 | 1015.9 |
| 20260901154703 | 85 | 73 | 5.0 | 8.0 | 0.00 | 0.16 | 0.00 | 88 | 1015.9 |
| 20260901154203 | 85 | 81 | 5.0 | 6.0 | 0.00 | 0.16 | 0.00 | 87 | 1015.9 |
| 20260901153204 | 85 | 54 | 3.0 | 6.0 | 0.00 | 0.16 | 0.00 | 87 | 1015.9 |
| 20260901151703 | 85 | 64 | 1.0 | 3.0 | 0.00 | 0.16 | 0.00 | 89 | 1015.9 |
| 20260901151203 | 84 | 54 | 2.0 | 6.0 | 0.00 | 0.16 | 0.00 | 87 | 1015.9 |
| 20260901150704 | 84 | 41 | 4.0 | 6.0 | 0.00 | 0.16 | 0.00 | 86 | 1015.9 |
| 20260901150203 | 84 | 62 | 3.0 | 6.0 | 0.00 | 0.16 | 0.00 | 89 | 1015.9 |
| 20260901144703 | 84 | 57 | 3.0 | 5.0 | 0.00 | 0.16 | 0.00 | 91 | 1015.9 |
| 20260901144203 | 84 | 60 | 3.0 | 6.0 | 0.00 | 0.16 | 0.00 | 91 | 1015.9 |
| 20260901143704 | 84 | 43 | 3.0 | 3.0 | 0.00 | 0.16 | 0.00 | 91 | 1015.9 |
| 20260901143203 | 84 | 34 | 1.0 | 3.0 | 0.00 | 0.16 | 0.00 | 92 | 1015.9 |
| 20260901141204 | 85 | 29 | 2.0 | 5.0 | 0.00 | 0.16 | 0.00 | 92 | 1015.9 |
| 20260901140704 | 85 | 7 | 3.0 | 3.0 | 0.00 | 0.16 | 0.00 | 91 | 1015.9 |
| 20260901134704 | 87 | 56 | 3.0 | 6.0 | 0.00 | 0.16 | 0.00 | 86 | 1015.0 |
| 20260901134204 | 87 | 358 | 4.0 | 6.0 | 0.00 | 0.16 | 0.00 | 88 | 1014.9 |
| 20260901133704 | 87 | 23 | 3.0 | 6.0 | 0.00 | 0.16 | 0.00 | 86 | 1014.9 |
| 20260901133204 | 87 | 2 | 3.0 | 8.0 | 0.00 | 0.16 | 0.00 | 89 | 1014.9 |
| 20260901131204 | 83 | 2 | 3.0 | 6.0 | 0.00 | 0.16 | 0.00 | 100 | 1014.9 |
| 20260901130703 | 83 | 17 | 3.0 | 5.0 | 0.00 | 0.16 | 0.00 | 100 | 1014.9 |
| 20260901130204 | 83 | 5 | 2.0 | 3.0 | 0.00 | 0.16 | 0.00 | 100 | 1014.9 |
| 20260901124704 | 82 | 355 | 2.0 | 3.0 | 0.00 | 0.16 | 0.00 | 100 | 1014.9 |
| 20260901124203 | 82 | 18 | 0.0 | 3.0 | 0.00 | 0.16 | 0.00 | 100 | 1014.9 |
| 20260901123704 | 82 | 349 | 3.0 | 5.0 | 0.00 | 0.16 | 0.00 | 100 | 1014.9 |
| 20260901123204 | 81 | 10 | 0.0 | 3.0 | 0.00 | 0.16 | 0.00 | 100 | 1014.9 |
| 20260901121704 | 80 | 349 | 3.0 | 3.0 | 0.00 | 0.16 | 0.00 | 100 | 1014.9 |
| 20260901121204 | 80 | 337 | 2.0 | 3.0 | 0.00 | 0.16 | 0.00 | 100 | 1014.9 |
| 20260901120704 | 79 | 347 | 1.0 | 5.0 | 0.00 | 0.16 | 0.00 | 100 | 1014.9 |
| 20260901120203 | 79 | 342 | 2.0 | 3.0 | 0.00 | 0.16 | 0.00 | 100 | 1014.9 |
| 20260901114703 | 78 | 327 | 0.0 | 0.0 | 0.00 | 0.16 | 0.00 | 100 | 1014.9 |
| 20260901114204 | 78 | 327 | 0.0 | 0.0 | 0.00 | 0.16 | 0.00 | 100 | 1014.9 |
| 20260901113703 | 78 | 327 | 0.0 | 0.0 | 0.00 | 0.16 | 0.00 | 100 | 1014.9 |
| 20260901113204 | 77 | 327 | 0.0 | 0.0 | 0.00 | 0.16 | 0.00 | 100 | 1013.9 |
| 20260901111704 | 77 | 327 | 0.0 | 0.0 | 0.00 | 0.16 | 0.00 | 100 | 1013.9 |
| 20260901111204 | 77 | 323 | 0.0 | 0.0 | 0.00 | 0.16 | 0.00 | 100 | 1013.9 |
| 20260901110703 | 77 | 323 | 0.0 | 0.0 | 0.00 | 0.16 | 0.00 | 100 | 1013.9 |
| 20260901110204 | 77 | 323 | 0.0 | 0.0 | 0.00 | 0.16 | 0.00 | 100 | 1013.9 |
| 20260901104704 | 77 | 323 | 0.0 | 0.0 | 0.00 | 0.16 | 0.00 | 100 | 1013.9 |
| 20260901103704 | 77 | 323 | 0.0 | 0.0 | 0.00 | 0.16 | 0.00 | 100 | 1013.9 |
| 20260901103204 | 77 | 323 | 0.0 | 0.0 | 0.00 | 0.16 | 0.00 | 100 | 1013.9 |
| 20260901101704 | 77 | 323 | 0.0 | 0.0 | 0.00 | 0.16 | 0.00 | 100 | 1013.9 |
| 20260901101204 | 77 | 323 | 0.0 | 0.0 | 0.00 | 0.16 | 0.00 | 100 | 1013.9 |
| 20260901100703 | 77 | 322 | 0.0 | 2.0 | 0.00 | 0.16 | 0.00 | 100 | 1013.9 |
| 20260901100203 | 77 | 321 | 1.0 | 3.0 | 0.00 | 0.16 | 0.00 | 100 | 1013.9 |
| 20260901094703 | 77 | 310 | 0.0 | 0.0 | 0.00 | 0.16 | 0.00 | 100 | 1013.9 |
| 20260901094203 | 77 | 244 | 0.0 | 0.0 | 0.00 | 0.16 | 0.00 | 100 | 1013.9 |
| 20260901093703 | 77 | 244 | 0.0 | 0.0 | 0.00 | 0.16 | 0.00 | 100 | 1013.9 |
| 20260901093203 | 77 | 244 | 0.0 | 0.0 | 0.00 | 0.16 | 0.00 | 100 | 1013.9 |
| 20260901091704 | 77 | 244 | 0.0 | 0.0 | 0.00 | 0.16 | 0.00 | 100 | 1013.9 |
| 20260901091204 | 77 | 244 | 0.0 | 0.0 | 0.00 | 0.16 | 0.00 | 100 | 1013.9 |
| 20260901090703 | 77 | 244 | 0.0 | 0.0 | 0.00 | 0.16 | 0.00 | 100 | 1013.9 |
| 20260901090204 | 77 | 244 | 0.0 | 0.0 | 0.00 | 0.16 | 0.00 | 100 | 1013.9 |
| 20260901084703 | 77 | 244 | 0.0 | 0.0 | 0.00 | 0.16 | 0.00 | 100 | 1013.9 |
| 20260901084204 | 77 | 244 | 0.0 | 0.0 | 0.00 | 0.16 | 0.00 | 100 | 1013.9 |
| 20260901083204 | 77 | 244 | 0.0 | 0.0 | 0.00 | 0.16 | 0.00 | 100 | 1013.9 |
| 20260901081704 | 77 | 244 | 0.0 | 0.0 | 0.00 | 0.16 | 0.00 | 100 | 1013.9 |
| 20260901081204 | 77 | 244 | 0.0 | 0.0 | 0.00 | 0.16 | 0.00 | 100 | 1013.9 |
| 20260901080203 | 78 | 244 | 0.0 | 0.0 | 0.00 | 0.16 | 0.00 | 100 | 1013.9 |
| 20260901074704 | 77 | 344 | 0.0 | 0.0 | 0.00 | 0.16 | 0.00 | 100 | 1014.9 |
| 20260901074203 | 77 | 344 | 0.0 | 0.0 | 0.00 | 0.16 | 0.00 | 100 | 1014.9 |
| 20260901073704 | 77 | 344 | 0.0 | 0.0 | 0.00 | 0.16 | 0.00 | 100 | 1014.9 |
| 20260901073203 | 78 | 344 | 0.0 | 3.0 | 0.00 | 0.16 | 0.00 | 100 | 1014.9 |
| 20260901071704 | 78 | 355 | 3.0 | 3.0 | 0.00 | 0.16 | 0.00 | 100 | 1014.9 |
| 20260901071204 | 78 | 342 | 2.0 | 3.0 | 0.00 | 0.16 | 0.00 | 100 | 1014.9 |
| 20260901070203 | 78 | 329 | 0.0 | 3.0 | 0.00 | 0.16 | 0.00 | 100 | 1014.9 |
| 20260901064203 | 78 | 330 | 0.0 | 3.0 | 0.00 | 0.16 | 0.00 | 100 | 1014.9 |
| 20260901063703 | 78 | 353 | 2.0 | 3.0 | 0.00 | 0.16 | 0.00 | 100 | 1014.9 |
| 20260901063204 | 78 | 334 | 0.0 | 0.0 | 0.00 | 0.16 | 0.00 | 100 | 1014.9 |
| 20260901061703 | 78 | 353 | 0.0 | 2.0 | 0.00 | 0.16 | 0.00 | 100 | 1014.9 |
| 20260901060704 | 78 | 353 | 2.0 | 3.0 | 0.00 | 0.16 | 0.00 | 100 | 1014.9 |
| 20260901060204 | 78 | 331 | 0.0 | 3.0 | 0.00 | 0.16 | 0.00 | 100 | 1014.9 |
| 20260901054704 | 78 | 301 | 1.0 | 3.0 | 0.00 | 0.16 | 0.00 | 100 | 1014.9 |
| 20260901054204 | 78 | 214 | 0.0 | 3.0 | 0.00 | 0.16 | 0.00 | 100 | 1014.9 |
| 20260901053704 | 78 | 214 | 0.0 | 3.0 | 0.00 | 0.16 | 0.00 | 100 | 1014.9 |
| 20260901053204 | 78 | 206 | 0.0 | 3.0 | 0.00 | 0.16 | 0.00 | 100 | 1015.9 |
| 20260901051703 | 79 | 229 | 3.0 | 6.0 | 0.00 | 0.16 | 0.00 | 99 | 1015.9 |
| 20260901051203 | 79 | 237 | 4.0 | 6.0 | 0.00 | 0.16 | 0.00 | 99 | 1015.9 |
| 20260901050203 | 79 | 198 | 3.0 | 9.0 | 0.00 | 0.16 | 0.00 | 100 | 1015.9 |
| 20260901044704 | 80 | 223 | 7.0 | 12.0 | 0.00 | 0.16 | 0.00 | 100 | 1015.9 |
| 20260901044203 | 80 | 285 | 1.0 | 2.0 | 0.00 | 0.16 | 0.00 | 100 | 1015.9 |
| 20260901043703 | 80 | 285 | 1.0 | 3.0 | 0.00 | 0.16 | 0.00 | 100 | 1015.9 |
| 20260901043203 | 80 | 285 | 0.0 | 3.0 | 0.00 | 0.16 | 0.00 | 100 | 1015.9 |
| 20260901041704 | 80 | 320 | 1.0 | 3.0 | 0.00 | 0.16 | 0.00 | 100 | 1015.9 |
| 20260901041205 | 80 | 312 | 2.0 | 3.0 | 0.00 | 0.16 | 0.00 | 100 | 1015.9 |
| 20260901040704 | 80 | 304 | 0.0 | 2.0 | 0.00 | 0.16 | 0.00 | 100 | 1015.9 |
| 20260901040204 | 80 | 287 | 1.0 | 3.0 | 0.00 | 0.16 | 0.00 | 100 | 1015.9 |
| 20260901034705 | 80 | 70 | 0.0 | 0.0 | 0.00 | 0.16 | 0.16 | 100 | 1015.9 |
| 20260901033703 | 80 | 69 | 0.0 | 0.0 | 0.00 | 0.16 | 0.16 | 100 | 1015.9 |
| 20260901033204 | 80 | 70 | 0.0 | 0.0 | 0.00 | 0.16 | 0.16 | 100 | 1015.9 |